AirNav   Duncan Aviation - Near you to keep you flying
 
 573 users online  

4MO6 Mark Twain Air Park
Louisiana, Missouri, USA

GOING TO LOUISIANA?


FAA INFORMATION EFFECTIVE 16 JUNE 2022

Location

FAA Identifier: 4MO6
Lat/Long: 39-26-20.1650N 091-07-05.5020W
39-26.336083N 091-07.091700W
39.4389347,-91.1181950
(estimated)
Elevation: 840 ft. / 256 m (estimated)
Variation: 02E (1985)
From city: 3 miles W of LOUISIANA, MO
Time zone: UTC -5 (UTC -6 during Standard Time)
Zip code: 63353

Airport Operations

Airport use: Private use. Permission required prior to landing
Activation date: 03/1967
Control tower: no
ARTCC: KANSAS CITY CENTER
FSS: COLUMBIA FLIGHT SERVICE STATION
Attendance: UNATNDD
Wind indicator: yes
Segmented circle: no

Airport Communications

WX AWOS-3 at PPQ (20 nm NE): 118.525 (217-285-1428)

Airport Services

Airframe service: NONE
Powerplant service: NONE

Runway Information

Runway 1/19

Dimensions: 2300 x 100 ft. / 701 x 30 m
Surface: turf
RUNWAY 1  RUNWAY 19
Traffic pattern: leftleft

Airport Ownership and Management from official FAA records

Ownership: Privately-owned
Owner: ROBERT P. MC FADDEN
10340 SAVANNAH AVENUE
ST LOUIS, MO 63131
Phone 314-352-5864

Airport Operational Statistics

Aircraft based on the field: 3
Single engine airplanes: 3
    

Additional Remarks

RWY SOFT AFTER RAINS.
FOR CD CTC KANSAS CITY ARTCC AT 913-254-8508.

Instrument Procedures

There are no published instrument procedures at 4MO6.

Some nearby airports with instrument procedures:

H19 - Bowling Green Municipal Airport (6 nm SW)
KPPQ - Pittsfield Penstone Municipal Airport (20 nm NE)
KHAE - Hannibal Regional Airport (23 nm NW)
KUIN - Quincy Regional Airport-Baldwin Field (30 nm N)
K52 - Cpt Ben Smith Airfield - Monroe City (31 nm NW)
 
Loc | Ops | Rwys | IFR | FBO | Links
Com | Nav | Svcs | Stats | Notes
Area around 4MO6 (Mark Twain Air Park)
 
Road maps at: MapQuest Bing Google
 
Aerial photo
No photo
 
Sectional chart

 
Airport distance calculator
Flying to Mark Twain Air Park? Find the distance to fly.

From to 4MO6

Sunrise and sunset
Times for 28-Jun-2022
 Local
(UTC-5)
 Zulu
(UTC)
Morning civil twilight05:0810:08
Sunrise05:4110:41
Sunset20:3501:35
Evening civil twilight21:0702:07

Current date and time
Zulu (UTC)  28-Jun-2022 06:44:12
Local (UTC-5)  28-Jun-2022 01:44:12
 
METAR
KPPQ 
19nm NE 
280635Z AUTO 00000KT 10SM CLR 16/16 A3026 RMK AO2 T01610155
KHAE 
23nm NW 
280635Z AUTO 00000KT 10SM CLR 15/12 A3026 RMK AO2
KUIN 
31nm N 
280554Z AUTO 00000KT 10SM CLR 18/13 A3025 RMK AO2 SLP238 T01830128 10250 20178 402720122 50003
KI63 
36nm NE 
280635Z AUTO 00000KT 10SM CLR 16/15 A3024 RMK AO2 T01560147
KMYJ 
37nm SW 
280635Z AUTO 00000KT 10SM CLR 15/13 A3026 RMK AO2
TAF
KUIN 
31nm N 
280520Z 2806/2906 VRB03KT P6SM SCT250
NOTAMs
Click for the latest NOTAMs
NOTAMs are issued by the DoD/FAA and will open in a separate window not controlled by AirNav.

 

 
 

Would you like to see your business listed on this page?

 If your business provides an interesting product or service to pilots, flight crews, aircraft, or users of the Mark Twain Air Park, you should consider listing it here.  To start the listing process, click on the button below
 
Add a business
 

Other Pages about Mark Twain Air Park

Update a link
 
Copyright © AirNav, LLC. All rights reserved. Privacy Policy  Contact